| time (UTC) | temp C | wind direction | speed KPH | gust KPH | rain 1hr cm | rain 24hr cm | rain mn cm | humidity % | barometer mb |
| 20260507093022 | 0 | 261 | 0.0 | 0.0 | 0.00 | 0.00 | 0.00 | 75 | 1014.2 |
| 20260507091520 | 1 | 261 | 0.0 | 0.0 | 0.00 | 0.00 | 0.00 | 74 | 1014.2 |
| 20260507090030 | 1 | 261 | 0.0 | 0.0 | 0.00 | 0.00 | 0.00 | 74 | 1014.2 |
| 20260507084530 | 1 | 261 | 0.0 | 0.0 | 0.00 | 0.00 | 0.00 | 73 | 1014.3 |
| 20260507083016 | 1 | 261 | 0.0 | 0.0 | 0.00 | 0.00 | 0.00 | 72 | 1014.4 |
| 20260507081515 | 1 | 261 | 0.0 | 0.0 | 0.00 | 0.00 | 0.00 | 72 | 1014.3 |
| 20260507080013 | 1 | 261 | 0.0 | 0.0 | 0.00 | 0.00 | 0.00 | 70 | 1014.2 |
| 20260507074523 | 2 | 261 | 0.0 | 0.0 | 0.00 | 0.00 | 0.00 | 70 | 1014.2 |
| 20260507073008 | 2 | 261 | 0.0 | 0.0 | 0.00 | 0.00 | 0.00 | 69 | 1014.2 |
| 20260507071505 | 2 | 261 | 0.0 | 0.0 | 0.00 | 0.00 | 0.00 | 67 | 1014.4 |
| 20260507070009 | 2 | 261 | 0.0 | 0.0 | 0.00 | 0.00 | 0.00 | 66 | 1014.5 |
| 20260507064601 | 2 | 261 | 0.0 | 0.0 | 0.00 | 0.00 | 0.00 | 66 | 1014.7 |
| 20260507063100 | 3 | 259 | 0.0 | 3.2 | 0.00 | 0.00 | 0.00 | 65 | 1014.9 |
| 20260507061559 | 3 | 258 | 0.0 | 1.6 | 0.00 | 0.00 | 0.00 | 65 | 1015.1 |
| 20260507060110 | 3 | 254 | 0.0 | 3.2 | 0.00 | 0.00 | 0.00 | 65 | 1015.1 |
| 20260507054558 | 3 | 250 | 0.0 | 1.6 | 0.00 | 0.00 | 0.00 | 65 | 1015.2 |
| 20260507053055 | 3 | 248 | 0.0 | 3.2 | 0.00 | 0.00 | 0.00 | 66 | 1015.2 |
| 20260507051551 | 3 | 263 | 0.0 | 0.0 | 0.00 | 0.00 | 0.00 | 64 | 1015.3 |
| 20260507050049 | 3 | 263 | 0.0 | 1.6 | 0.00 | 0.00 | 0.00 | 63 | 1015.4 |
| 20260507044549 | 3 | 263 | 0.0 | 0.0 | 0.00 | 0.00 | 0.00 | 62 | 1015.6 |
| 20260507043048 | 3 | 263 | 0.0 | 0.0 | 0.00 | 0.00 | 0.00 | 62 | 1015.6 |
| 20260507041548 | 3 | 262 | 0.0 | 0.0 | 0.00 | 0.00 | 0.00 | 62 | 1015.8 |
| 20260507040047 | 3 | 262 | 0.0 | 3.2 | 0.00 | 0.00 | 0.00 | 61 | 1015.8 |
| 20260507034555 | 3 | 261 | 0.0 | 4.8 | 0.00 | 0.00 | 0.00 | 62 | 1015.8 |
| 20260507033047 | 3 | 261 | 0.0 | 0.0 | 0.00 | 0.00 | 0.00 | 62 | 1016.0 |
| 20260507031546 | 3 | 261 | 0.0 | 0.0 | 0.00 | 0.00 | 0.00 | 61 | 1016.0 |
| 20260507030045 | 4 | 260 | 0.0 | 0.0 | 0.00 | 0.00 | 0.00 | 61 | 1016.0 |
| 20260507024554 | 4 | 260 | 0.0 | 0.0 | 0.00 | 0.00 | 0.00 | 61 | 1016.1 |
| 20260507023043 | 4 | 260 | 0.0 | 3.2 | 0.00 | 0.00 | 0.00 | 61 | 1016.1 |
| 20260507021548 | 4 | 259 | 0.0 | 3.2 | 0.00 | 0.00 | 0.00 | 60 | 1016.0 |
| 20260507020051 | 4 | 263 | 0.0 | 3.2 | 0.00 | 0.00 | 0.00 | 59 | 1016.0 |
| 20260507014545 | 4 | 259 | 0.0 | 8.0 | 0.00 | 0.00 | 0.00 | 59 | 1015.9 |
| 20260507013041 | 4 | 264 | 4.8 | 12.9 | 0.00 | 0.00 | 0.00 | 58 | 1015.9 |
| 20260507011545 | 4 | 267 | 1.6 | 6.4 | 0.00 | 0.00 | 0.00 | 59 | 1015.9 |
| 20260507010049 | 4 | 269 | 0.0 | 3.2 | 0.00 | 0.00 | 0.00 | 59 | 1016.0 |
| 20260507004539 | 5 | 275 | 6.4 | 12.9 | 0.00 | 0.00 | 0.00 | 57 | 1016.0 |
| 20260507003040 | 5 | 263 | 1.6 | 9.7 | 0.00 | 0.00 | 0.00 | 58 | 1016.0 |
| 20260507001546 | 5 | 259 | 4.8 | 16.1 | 0.00 | 0.00 | 0.00 | 57 | 1016.0 |
| 20260507000038 | 5 | 267 | 1.6 | 12.9 | 0.00 | 0.00 | 0.00 | 57 | 1016.1 |
| 20260506234538 | 5 | 281 | 6.4 | 14.5 | 0.00 | 0.00 | 0.00 | 56 | 1016.1 |
| 20260506233038 | 5 | 302 | 6.4 | 17.7 | 0.00 | 0.00 | 0.00 | 55 | 1016.1 |
| 20260506231538 | 5 | 279 | 3.2 | 14.5 | 0.00 | 0.00 | 0.00 | 55 | 1016.3 |
| 20260506230043 | 5 | 267 | 1.6 | 17.7 | 0.00 | 0.00 | 0.00 | 56 | 1016.4 |
| 20260506224535 | 5 | 261 | 3.2 | 14.5 | 0.00 | 0.00 | 0.00 | 56 | 1016.5 |
| 20260506223036 | 5 | 261 | 9.7 | 16.1 | 0.00 | 0.00 | 0.00 | 55 | 1016.5 |
| 20260506221542 | 5 | 249 | 6.4 | 12.9 | 0.00 | 0.00 | 0.00 | 56 | 1016.5 |
| 20260506220044 | 5 | 242 | 6.4 | 11.3 | 0.00 | 0.00 | 0.00 | 56 | 1016.6 |
| 20260506214533 | 5 | 228 | 9.7 | 16.1 | 0.00 | 0.00 | 0.00 | 56 | 1016.6 |
| 20260506213035 | 5 | 235 | 8.0 | 20.9 | 0.00 | 0.00 | 0.00 | 56 | 1016.7 |
| 20260506211537 | 5 | 286 | 6.4 | 20.9 | 0.00 | 0.00 | 0.00 | 54 | 1016.7 |
| 20260506210030 | 5 | 281 | 6.4 | 22.5 | 0.00 | 0.00 | 0.00 | 56 | 1016.8 |
| 20260506204529 | 4 | 200 | 14.5 | 25.7 | 0.00 | 0.00 | 0.00 | 56 | 1016.8 |
| 20260506203029 | 5 | 261 | 8.0 | 17.7 | 0.00 | 0.00 | 0.00 | 57 | 1016.9 |
| 20260506201528 | 5 | 229 | 9.7 | 22.5 | 0.00 | 0.00 | 0.00 | 55 | 1016.9 |
| 20260506200026 | 5 | 240 | 8.0 | 27.4 | 0.00 | 0.00 | 0.00 | 56 | 1016.8 |
| 20260506194525 | 4 | 243 | 9.7 | 20.9 | 0.00 | 0.00 | 0.00 | 55 | 1017.0 |
| 20260506193031 | 4 | 265 | 4.8 | 17.7 | 0.00 | 0.00 | 0.00 | 55 | 1017.0 |
| 20260506191523 | 4 | 252 | 8.0 | 20.9 | 0.00 | 0.00 | 0.00 | 57 | 1017.1 |
| 20260506190022 | 3 | 275 | 9.7 | 19.3 | 0.00 | 0.00 | 0.00 | 57 | 1017.1 |
| 20260506184524 | 3 | 279 | 12.9 | 19.3 | 0.00 | 0.00 | 0.00 | 56 | 1017.0 |
| 20260506183019 | 3 | 243 | 11.3 | 17.7 | 0.00 | 0.00 | 0.00 | 58 | 1017.1 |
| 20260506181517 | 3 | 253 | 12.9 | 20.9 | 0.00 | 0.00 | 0.00 | 57 | 1017.2 |
| 20260506180017 | 3 | 263 | 8.0 | 20.9 | 0.00 | 0.00 | 0.00 | 59 | 1017.2 |
| 20260506174514 | 3 | 305 | 3.2 | 11.3 | 0.00 | 0.00 | 0.00 | 59 | 1017.3 |
| 20260506173013 | 3 | 276 | 3.2 | 12.9 | 0.00 | 0.00 | 0.00 | 61 | 1017.4 |
| 20260506171509 | 2 | 244 | 1.6 | 14.5 | 0.00 | 0.00 | 0.00 | 61 | 1017.5 |
| 20260506170011 | 3 | 265 | 1.6 | 9.7 | 0.00 | 0.00 | 0.00 | 61 | 1017.6 |
| 20260506164507 | 3 | 288 | 0.0 | 16.1 | 0.00 | 0.00 | 0.00 | 61 | 1017.7 |
| 20260506163008 | 2 | 282 | 4.8 | 14.5 | 0.00 | 0.00 | 0.00 | 61 | 1017.7 |
| 20260506161503 | 2 | 286 | 3.2 | 12.9 | 0.00 | 0.00 | 0.00 | 62 | 1017.8 |
| 20260506160001 | 2 | 292 | 1.6 | 9.7 | 0.00 | 0.00 | 0.00 | 63 | 1017.9 |
| 20260506154602 | 2 | 313 | 0.0 | 11.3 | 0.00 | 0.00 | 0.00 | 63 | 1017.8 |
| 20260506153059 | 2 | 265 | 1.6 | 6.4 | 0.00 | 0.00 | 0.00 | 63 | 1017.7 |
| 20260506151559 | 2 | 304 | 0.0 | 14.5 | 0.00 | 0.00 | 0.00 | 63 | 1017.7 |
| 20260506144611 | 2 | 312 | 0.0 | 6.4 | 0.00 | 0.00 | 0.00 | 63 | 1017.7 |
| 20260506143056 | 2 | 281 | 1.6 | 8.0 | 0.00 | 0.00 | 0.00 | 63 | 1017.6 |
| 20260506141554 | 2 | 255 | 4.8 | 12.9 | 0.00 | 0.00 | 0.00 | 62 | 1017.5 |
| 20260506140106 | 2 | 306 | 0.0 | 4.8 | 0.00 | 0.00 | 0.00 | 63 | 1017.4 |
| 20260506134553 | 1 | 298 | 0.0 | 6.4 | 0.00 | 0.00 | 0.00 | 63 | 1017.3 |
| 20260506133107 | 1 | 281 | 0.0 | 8.0 | 0.00 | 0.00 | 0.00 | 64 | 1017.3 |
| 20260506131548 | 1 | 256 | 0.0 | 4.8 | 0.00 | 0.00 | 0.00 | 64 | 1017.2 |
| 20260506130124 | 1 | 283 | 0.0 | 8.0 | 0.00 | 0.00 | 0.00 | 65 | 1017.1 |
| 20260506124548 | 1 | 314 | 0.0 | 1.6 | 0.00 | 0.00 | 0.00 | 66 | 1016.9 |
| 20260506123047 | 1 | 10 | 0.0 | 0.0 | 0.00 | 0.00 | 0.00 | 66 | 1016.9 |
| 20260506121551 | 1 | 24 | 0.0 | 0.0 | 0.00 | 0.00 | 0.00 | 66 | 1016.7 |
| 20260506120041 | 1 | 24 | 0.0 | 0.0 | 0.00 | 0.00 | 0.00 | 65 | 1016.5 |
| 20260506114539 | 1 | 24 | 0.0 | 0.0 | 0.00 | 0.00 | 0.00 | 65 | 1016.4 |
| 20260506113040 | 1 | 25 | 0.0 | 0.0 | 0.00 | 0.00 | 0.00 | 65 | 1016.2 |
| 20260506111536 | 1 | 28 | 0.0 | 0.0 | 0.00 | 0.00 | 0.00 | 66 | 1016.0 |
| 20260506110041 | 1 | 28 | 0.0 | 0.0 | 0.00 | 0.00 | 0.00 | 67 | 1015.8 |
| 20260506104533 | 1 | 28 | 0.0 | 0.0 | 0.00 | 0.00 | 0.00 | 66 | 1015.8 |
| 20260506103033 | 1 | 28 | 0.0 | 0.0 | 0.00 | 0.00 | 0.00 | 67 | 1015.7 |
| 20260506101534 | 1 | 28 | 0.0 | 0.0 | 0.00 | 0.00 | 0.00 | 67 | 1015.8 |
| 20260506100030 | 1 | 28 | 0.0 | 0.0 | 0.00 | 0.00 | 0.00 | 67 | 1015.8 |
| 20260506094529 | 1 | 28 | 0.0 | 0.0 | 0.00 | 0.00 | 0.00 | 67 | 1015.7 |